Hlavní strana
METAR-TAF:

METAR-TAF

Letiště :

Neiva, Kolumbie

zeměpisná šířka: 02-58N, zeměpisná délka: 075-18W, výška: 439 m

Aktuální stav počasí

Zpráva byla vytvořena před 10 hodinami a 58 minutami, v 23:00 UTC
Jihojihozápadní vítr 4 kt
Teplota 30°C
Vlhkost vzduchu 59%
Tlak 1010 hPa
Viditelnost 10 km a více
Skoro jasno ve výšce 4000 ft
přeháňky v blízkosti

METAR: SKNV 292300Z 20004KT 9999 VCSH FEW040 30/21 A2983 RMK VCSH/E

Čas: 04:58 (09:58 UTC)


TAF: chybějící

Stav a předpovědi počasí z více než 4 000 letišť (zprávy METAR a TAF).

Červené a žluté tečky na mapě představují dostupné meteorologické stanice.

Když kurzor umístíte na tečku, zobrazí se název stanice.

Pak kliknutím zobrazíte stav a předpověď počasí.

Chcete-li změnit mapu, kliknutím na zelené tlačítko se znaménkem +mapu přiblížíte, kliknutím na zelené tlačítko se znaménkem – mapu oddálíte a kliknutím na zelené šipky přejdete na sousední mapy.


METAR-TAF: